Kerrville, TX

1:10 AM CDT on August 18, 2017 (GMT -0500)
Kerrville Municipal-Schreiner

Weather History for KERV - March, 2013

Change the Weather History Date:

Friday, March 29, 2013

  Actual Average (KHDO) Record (KHDO)
Temperature  
Mean Temperature 66 °F -  
Max Temperature 73 °F 72 °F 86 °F (1998)
Min Temperature 59 °F 51 °F 33 °F (2003)
Cooling Degree Days 1    
Growing Degree Days 16 (Base 50)    
Moisture  
Dew Point 55 °F    
Average Humidity 71    
Maximum Humidity 88    
Minimum Humidity 53    
Precipitation  
Precipitation 0.00 in - - ()
Sea Level Pressure  
Sea Level Pressure 30.13 in    
Wind  
Wind Speed 11 mph (SSE)    
Max Wind Speed 18 mph    
Max Gust Speed 23 mph    
Visibility 10 miles    
Events      
Averages and records for this station are not official NWS values.
T = Trace of Precipitation, MM = Missing Value Source: NWS Daily Summary

Daily Weather History Graph

Daily Weather History Graph

Search for Another Location

Airport or City:

Trip Planner

Search our weather history database for the weather conditions in past years. The results will help you decide how hot, cold, wet, or windy it might be!

Date:

Astronomy

Mar. 29, 2013 Rise Set
Actual Time 7:28 AM CDT 7:53 PM CDT
Civil Twilight 7:04 AM CDT 8:17 PM CDT
Nautical Twilight 6:36 AM CDT 8:45 PM CDT
Astronomical Twilight 6:08 AM CDT 9:14 PM CDT
Moon 10:40 PM CDT (3/29) 8:51 AM CDT (3/29)
Length of Visible Light 13h 12m
Length of Day
12h 24m
Waning Gibbous, 93% of the Moon is Illuminated
Mar 29
Waning Gibbous
Apr 2
Last Quarter
Apr 10
New
Apr 18
First Quarter
Apr 25
Full

Hourly Weather History & Observations

Time (CDT) Temp. Dew Point Humidity Pressure Visibility Wind Dir Wind Speed Gust Speed Precip Events Conditions
12:15 AM 60.8 °F 55.4 °F 82% 30.17 in 10.0 mi SSE 8.1 mph - N/A   Overcast
12:35 AM 60.8 °F 55.4 °F 82% 30.18 in 10.0 mi South 10.4 mph - N/A   Overcast
12:55 AM 60.8 °F 55.4 °F 82% 30.18 in 10.0 mi SSE 10.4 mph 16.1 mph N/A   Overcast
1:15 AM 59.0 °F 53.6 °F 82% 30.17 in 10.0 mi SSE 11.5 mph - N/A   Mostly Cloudy
1:35 AM 59.0 °F 53.6 °F 82% 30.18 in 10.0 mi SSE 11.5 mph 17.3 mph N/A   Overcast
1:55 AM 59.0 °F 53.6 °F 82% 30.17 in 10.0 mi SSE 11.5 mph - N/A   Mostly Cloudy
2:15 AM 59.0 °F 53.6 °F 82% 30.17 in 10.0 mi SSE 9.2 mph - N/A   Mostly Cloudy
2:35 AM 59.0 °F 53.6 °F 82% 30.17 in 10.0 mi SSE 9.2 mph - N/A   Mostly Cloudy
2:55 AM 59.0 °F 53.6 °F 82% 30.16 in 10.0 mi South 10.4 mph - N/A   Overcast
3:15 AM 59.0 °F 53.6 °F 82% 30.16 in 10.0 mi South 11.5 mph - N/A   Overcast
3:55 AM 59.0 °F 53.6 °F 82% 30.14 in 10.0 mi SSE 8.1 mph - N/A   Overcast
4:15 AM 59.0 °F 53.6 °F 82% 30.14 in 10.0 mi South 10.4 mph - N/A   Overcast
4:55 AM 59.0 °F 53.6 °F 82% 30.13 in 10.0 mi South 11.5 mph 17.3 mph N/A   Overcast
5:15 AM 59.0 °F 55.4 °F 88% 30.13 in 10.0 mi South 10.4 mph 16.1 mph N/A   Overcast
5:35 AM 59.0 °F 55.4 °F 88% 30.13 in 10.0 mi South 13.8 mph - N/A   Overcast
5:55 AM 59.0 °F 55.4 °F 88% 30.13 in 10.0 mi SSE 10.4 mph - N/A   Mostly Cloudy
6:15 AM 59.0 °F 53.6 °F 82% 30.13 in 10.0 mi SSE 11.5 mph 18.4 mph N/A   Mostly Cloudy
6:35 AM 59.0 °F 53.6 °F 82% 30.14 in 10.0 mi SSE 11.5 mph - N/A   Mostly Cloudy
6:55 AM 59.0 °F 53.6 °F 82% 30.14 in 10.0 mi SSE 9.2 mph - N/A   Mostly Cloudy
7:15 AM 59.0 °F 53.6 °F 82% 30.15 in 10.0 mi SSE 9.2 mph - N/A   Scattered Clouds
7:35 AM 59.0 °F 55.4 °F 88% 30.15 in 10.0 mi SSE 9.2 mph - N/A   Mostly Cloudy
7:55 AM 59.0 °F 53.6 °F 82% 30.15 in 10.0 mi South 11.5 mph - N/A   Mostly Cloudy
8:15 AM 59.0 °F 55.4 °F 88% 30.15 in 10.0 mi SSE 10.4 mph - N/A   Mostly Cloudy
8:35 AM 60.8 °F 55.4 °F 82% 30.15 in 10.0 mi SSE 10.4 mph - N/A   Overcast
8:55 AM 60.8 °F 55.4 °F 82% 30.15 in 10.0 mi SSE 15.0 mph 21.9 mph N/A   Overcast
9:15 AM 60.8 °F 57.2 °F 88% 30.16 in 10.0 mi SSE 12.7 mph - N/A   Overcast
9:35 AM 60.8 °F 57.2 °F 88% 30.17 in 10.0 mi South 12.7 mph 18.4 mph N/A   Overcast
9:55 AM 60.8 °F 55.4 °F 82% 30.17 in 10.0 mi South 11.5 mph - N/A   Overcast
10:15 AM 62.6 °F 57.2 °F 82% 30.17 in 10.0 mi South 10.4 mph 17.3 mph N/A   Overcast
10:35 AM 62.6 °F 55.4 °F 77% 30.17 in 10.0 mi South 16.1 mph 20.7 mph N/A   Overcast
10:55 AM 64.4 °F 55.4 °F 73% 30.17 in 10.0 mi South 18.4 mph - N/A   Overcast
11:15 AM 64.4 °F 57.2 °F 77% 30.17 in 10.0 mi South 15.0 mph 23.0 mph N/A   Overcast
11:35 AM 64.4 °F 57.2 °F 77% 30.17 in 10.0 mi South 16.1 mph 20.7 mph N/A   Overcast
11:55 AM 68.0 °F 59.0 °F 73% 30.17 in 10.0 mi SSE 17.3 mph 21.9 mph N/A   Overcast
12:15 PM 68.0 °F 59.0 °F 73% 30.16 in 10.0 mi South 15.0 mph - N/A   Overcast
12:35 PM 71.6 °F 57.2 °F 60% 30.15 in 10.0 mi SSE 16.1 mph 21.9 mph N/A   Mostly Cloudy
12:55 PM 71.6 °F 57.2 °F 60% 30.15 in 10.0 mi South 12.7 mph 18.4 mph N/A   Mostly Cloudy
1:15 PM 71.6 °F 55.4 °F 57% 30.15 in 10.0 mi South 16.1 mph 21.9 mph N/A   Mostly Cloudy
1:35 PM 71.6 °F 55.4 °F 57% 30.14 in 10.0 mi SSE 17.3 mph - N/A   Mostly Cloudy
1:55 PM 71.6 °F 55.4 °F 57% 30.13 in 10.0 mi South 15.0 mph - N/A   Overcast
2:15 PM 71.6 °F 55.4 °F 57% 30.13 in 10.0 mi South 15.0 mph - N/A   Overcast
2:35 PM 71.6 °F 55.4 °F 57% 30.13 in 10.0 mi South 15.0 mph - N/A   Overcast
2:55 PM 71.6 °F 55.4 °F 57% 30.12 in 10.0 mi South 12.7 mph 18.4 mph N/A   Overcast
3:15 PM 71.6 °F 55.4 °F 57% 30.12 in 10.0 mi SSE 12.7 mph 17.3 mph N/A   Overcast
3:35 PM 71.6 °F 55.4 °F 57% 30.10 in 10.0 mi South 12.7 mph - N/A   Overcast
3:55 PM 71.6 °F 57.2 °F 60% 30.09 in 10.0 mi SSE 12.7 mph - N/A   Overcast
4:15 PM 71.6 °F 57.2 °F 60% 30.08 in 10.0 mi SSE 15.0 mph 19.6 mph N/A   Mostly Cloudy
4:35 PM 71.6 °F 55.4 °F 57% 30.08 in 10.0 mi SSE 12.7 mph 20.7 mph N/A   Mostly Cloudy
4:55 PM 73.4 °F 55.4 °F 53% 30.08 in 10.0 mi South 13.8 mph 19.6 mph N/A   Mostly Cloudy
5:15 PM 73.4 °F 55.4 °F 53% 30.08 in 10.0 mi South 11.5 mph 17.3 mph N/A   Mostly Cloudy
5:35 PM 71.6 °F 55.4 °F 57% 30.08 in 10.0 mi SSE 12.7 mph - N/A   Mostly Cloudy
5:55 PM 71.6 °F 55.4 °F 57% 30.08 in 10.0 mi South 12.7 mph - N/A   Mostly Cloudy
6:15 PM 71.6 °F 55.4 °F 57% 30.08 in 10.0 mi SSE 13.8 mph - N/A   Scattered Clouds
6:35 PM 71.6 °F 55.4 °F 57% 30.07 in 10.0 mi SE 10.4 mph - N/A   Clear
6:55 PM 71.6 °F 55.4 °F 57% 30.07 in 10.0 mi SSE 9.2 mph - N/A   Clear
7:15 PM 71.6 °F 55.4 °F 57% 30.07 in 10.0 mi SSE 9.2 mph - N/A   Clear
7:35 PM 71.6 °F 55.4 °F 57% 30.07 in 10.0 mi South 9.2 mph - N/A   Clear
7:55 PM 71.6 °F 55.4 °F 57% 30.07 in 10.0 mi South 10.4 mph - N/A   Clear
8:15 PM 71.6 °F 57.2 °F 60% 30.07 in 10.0 mi South 8.1 mph - N/A   Clear
8:35 PM 71.6 °F 57.2 °F 60% 30.06 in 10.0 mi SE 9.2 mph - N/A   Clear
8:55 PM 68.0 °F 55.4 °F 64% 30.06 in 10.0 mi SE 9.2 mph - N/A   Clear
9:15 PM 68.0 °F 55.4 °F 64% 30.06 in 10.0 mi SE 8.1 mph - N/A   Clear
9:35 PM 68.0 °F 55.4 °F 64% 30.06 in 10.0 mi SE 8.1 mph - N/A   Clear
9:55 PM 68.0 °F 55.4 °F 64% 30.08 in 10.0 mi SSE 10.4 mph - N/A   Clear
10:15 PM 68.0 °F 57.2 °F 68% 30.09 in 10.0 mi SE 13.8 mph - N/A   Clear
10:35 PM 66.2 °F 55.4 °F 68% 30.11 in 10.0 mi SSE 9.2 mph - N/A   Clear
10:55 PM 64.4 °F 55.4 °F 73% 30.12 in 10.0 mi SSE 9.2 mph - N/A   Clear
11:15 PM 64.4 °F 55.4 °F 73% 30.11 in 10.0 mi SE 13.8 mph - N/A   Clear
11:55 PM 64.4 °F 55.4 °F 73% 30.13 in 10.0 mi SSE 9.2 mph - N/A   Mostly Cloudy